RH
82 61 43 33 36 44 49 34 30 25 27 21 21 21 20 21 22 28 44 84 86 94 96 96 90 94 94 93 92 93 92 91 90 90 90 89 88 88 88 87 85 83 81 78 80 82 81 83 86
60 42 33 40 43 47 34 35 30 24 20 23 22 25 28 27 51 60 64 81 89 95 97 97 96 94 93 92 90 91 92 90 90 90 89 89 89 89 88 87 86 83 78 76 76 78 81 86 89
40 38 38 43 58 45 36 31 24 24 18 22 22 21 27 30 55 60 60 78 90 96 96 95 96 95 93 93 93 91 90 91 90 90 89 89 89 88 87 87 84 80 80 78 77 80 85 90 91
42 42 40 43 49 44 36 32 30 23 19 19 18 22 26 40 48 55 59 84 90 96 97 96 96 96 94 94 93 92 93 93 91 88 90 88 89 85 84 85 82 78 80 78 78 84 89 91 90
36 43 48 58 49 38 32 30 27 25 20 20 20 22 26 42 56 60 74 85 91 97 98 97 96 95 94 93 92 93 93 94 92 83 76 79 79 80 83 85 83 80 76 80 85 89 91 91 88
37 42 54 52 44 35 27 23 25 24 23 20 23 26 25 58 68 72 84 94 93 97 97 98 96 95 95 95 93 94 95 94 88 86 88 88 84 83 80 84 82 80 81 85 90 91 91 88 88
38 45 54 57 42 34 26 23 24 22 22 20 25 24 36 56 68 78 86 94 94 96 97 98 98 96 96 97 97 96 96 93 90 89 87 86 85 87 86 81 79 80 83 86 90 89 88 87 88
41 42 63 47 38 30 24 23 21 21 22 17 27 32 32 54 83 86 88 92 96 98 98 98 99 99 99 90 98 98 96 94 91 91 90 89 86 84 84 83 82 81 82 86 89 87 86 86 87
40 47 53 42 36 28 24 26 24 21 19 18 17 28 39 70 87 89 91 93 97 99 99 99 99 99 99 95 99 98 98 92 92 91 92 92 91 89 85 83 82 81 87 88 89 85 84 87 87
40 54 43 35 29 26 26 32 28 23 23 22 19 40 71 87 87 86 91 91 96 98 99 99 99 99 99 99 99 99 98 95 93 92 92 93 93 94 88 86 87 84 89 89 88 84 84 88 92
44 41 36 30 27 28 30 29 28 27 25 24 21 20 76 86 88 81 80 84 87 93 98 99 98 98 99 97 98 99 99 98 96 92 94 92 95 95 96 95 91 91 89 87 88 81 88 93 89
40 36 29 32 28 32 28 28 26 26 21 19 20 22 66 80 86 80 79 87 91 93 93 97 98 98 96 97 97 98 98 99 98 95 93 96 98 97 95 95 92 91 89 96 90 76 90 92 87
43 39 30 29 27 29 27 29 28 26 21 20 20 21 51 74 74 74 71 79 91 93 95 96 97 97 96 98 99 99 99 99 97 98 95 94 96 95 94 89 95 92 91 93 88 79 82 85 85
34 36 29 30 32 32 31 30 34 24 24 21 23 24 25 70 68 69 81 82 92 87 94 96 97 98 94 98 98 99 99 98 99 98 96 94 95 94 92 88 92 98 91 89 81 73 80 83 82
36 40 37 38 34 33 30 35 32 23 24 24 22 23 24 37 58 69 63 66 72 87 94 96 96 98 98 97 98 98 98 98 99 98 96 94 93 92 90 91 93 93 86 89 79 79 78 84 80
40 42 51 38 33 30 27 34 30 24 26 25 25 25 25 25 32 54 55 58 72 95 96 96 96 98 99 99 96 98 98 98 97 97 97 96 93 92 92 92 94 96 89 82 76 76 83 86 84
47 52 51 42 32 29 29 33 30 29 28 27 26 28 27 26 26 31 48 59 90 94 96 96 98 98 98 99 97 98 98 98 98 98 97 96 96 94 92 87 90 91 89 82 76 78 82 86 92
51 55 49 48 39 35 38 35 33 28 31 28 28 26 30 28 26 35 65 90 96 96 96 96 97 98 99 99 99 99 99 99 98 98 98 97 95 95 95 92 90 88 88 84 76 77 88 85 87
34 44 47 49 37 39 40 37 36 30 30 30 29 32 30 30 45 88 96 99 99 98 98 98 98 99 98 98 99 99 98 99 99 98 95 97 96 93 95 93 87 88 84 79 74 77 83 94 88
41 40 39 45 38 37 36 35 30 31 28 27 27 26 30 33 58 91 98 99 97 94 97 98 98 98 96 87 96 96 98 98 98 99 98 95 98 90 96 90 83 80 81 77 75 73 90 91 84
34 40 43 45 42 37 44 33 23 22 28 26 28 31 33 32 34 80 98 98 98 97 96 97 97 92 95 97 96 99 98 99 100 100 99 98 96 92 86 88 81 71 73 77 72 72 77 80 90
29 29 32 37 40 45 38 39 33 29 26 33 31 31 34 34 37 64 93 98 95 92 95 97 94 89 98 97 98 98 98 97 98 98 99 98 93 88 76 74 69 70 73 73 68 70 81 72 81
27 23 27 30 40 41 36 37 34 34 37 26 28 34 36 34 37 53 86 90 88 92 98 93 89 94 97 97 92 93 92 94 98 99 99 98 96 90 78 72 71 78 73 76 66 76 77 69 78
24 29 30 36 41 52 36 38 42 34 27 36 46 46 53 51 35 59 84 94 92 94 92 92 91 95 98 97 95 92 90 97 99 99 99 98 96 94 84 79 78 86 86 83 78 74 75 71 70
33 41 60 67 63 53 34 43 33 34 32 46 53 55 54 69 51 83 93 98 94 96 94 90 93 93 92 98 94 96 96 97 98 96 98 98 98 96 91 86 89 92 92 88 85 84 85 82 80
44 42 62 58 74 59 47 52 44 33 41 45 54 60 58 63 69 82 89 95 88 89 90 91 91 90 93 90 93 94 94 95 95 91 93 95 95 95 93 89 85 92 91 93 91 91 95 92 92
37 42 36 45 65 65 59 58 44 49 52 55 62 65 64 66 70 79 91 95 86 87 88 87 85 82 88 88 91 94 93 94 95 93 90 94 95 97 95 93 90 85 87 93 93 95 98 96 96
32 32 47 54 53 55 57 70 54 62 57 61 68 71 68 65 69 82 88 97 87 92 87 85 84 81 83 85 81 89 91 93 93 94 92 94 96 96 96 96 93 92 90 91 93 94 93 97 99
36 42 42 46 59 54 59 58 53 48 63 78 80 70 70 67 74 88 87 93 92 92 88 86 89 87 89 89 96 97 96 91 93 93 94 94 96 97 95 94 94 94 92 90 92 92 93 92 94
52 43 37 58 54 66 60 52 74 76 73 73 73 75 70 63 67 74 92 95 96 97 92 90 92 92 90 90 93 97 97 96 96 93 92 94 94 94 96 97 94 94 95 94 93 95 94 93 94
Wind_Speed
5 2 2 5 5 6 4 6 3 4 2 3 5 5 8 4 6 6 3 8 6 7 8 10 13 14 16 17 17 16 15 16 19 20 21 21 17 16 17 16 16 18 19 21 21 19 22 21 18
5 3 5 3 6 3 6 4 4 6 5 3 3 2 1 2 1 1 3 9 8 8 9 10 12 13 14 14 15 18 18 17 16 17 19 19 26 18 16 17 15 17 17 20 20 21 22 21 19
5 4 4 5 3 6 5 6 4 3 6 3 1 1 2 3 3 5 6 13 10 9 9 10 13 11 13 12 11 12 15 14 15 16 14 17 19 19 18 16 14 16 16 18 20 21 21 18 19
2 4 5 5 6 7 6 3 4 10 6 5 4 4 3 2 6 7 7 10 10 9 9 9 12 12 12 12 12 11 11 15 18 22 21 14 18 19 17 15 13 13 19 17 19 21 19 17 18
5 3 3 1 6 6 6 5 4 6 5 5 3 5 4 2 5 5 7 10 11 6 6 6 11 11 12 13 13 11 13 12 16 20 19 13 15 13 12 11 12 11 12 16 19 20 18 16 17
4 3 3 5 6 5 6 8 3 5 5 6 3 4 6 2 3 2 4 6 6 8 7 6 10 12 11 12 13 12 13 16 16 17 21 25 12 17 9 6 8 9 12 18 17 19 19 17 17
7 4 5 4 4 4 6 4 2 2 2 3 1 6 5 5 4 6 7 5 7 6 6 6 7 9 11 11 11 11 14 14 19 19 18 23 23 27 22 10 9 9 13 15 17 16 19 18 17
6 5 3 5 4 8 6 2 1 3 4 2 4 4 6 3 7 7 6 5 5 6 6 6 6 6 7 10 11 12 12 16 23 23 18 15 17 21 24 20 13 12 15 15 18 16 17 17 16
4 3 5 7 8 6 3 2 2 4 4 4 3 3 5 4 7 6 4 2 3 4 6 6 7 6 6 7 7 11 8 19 24 22 26 21 10 11 14 16 19 16 20 18 17 16 15 16 15
5 5 11 8 7 6 2 1 1 5 7 6 6 2 3 3 7 10 9 11 7 8 6 6 6 7 6 5 6 5 8 11 12 13 13 10 13 5 5 9 14 18 18 21 18 16 15 11 5
5 8 5 6 7 4 2 6 1 2 9 8 8 10 2 4 7 9 12 9 11 6 5 8 7 6 6 7 5 4 4 7 8 14 11 10 9 9 6 5 7 8 13 9 10 9 5 8 6
5 7 8 4 6 2 7 2 5 7 12 11 11 7 5 9 11 14 14 12 10 10 10 8 7 7 8 5 5 5 6 6 7 11 13 9 7 8 8 5 6 8 7 9 8 5 6 7 6
7 3 7 7 7 6 7 14 9 11 14 11 11 7 10 10 12 13 14 6 7 8 9 10 9 10 7 6 4 4 4 6 7 10 13 11 8 9 7 7 6 7 7 10 7 7 7 8 7
3 8 14 9 9 6 10 18 2 12 5 9 10 11 10 11 16 14 7 11 12 11 12 11 10 10 9 6 6 5 4 6 6 7 11 12 9 8 9 9 8 7 7 9 10 8 8 7 8
5 8 7 7 6 7 5 7 15 13 7 10 11 8 8 12 14 17 19 18 17 11 11 12 10 9 11 9 7 6 5 5 6 6 10 13 11 10 11 9 9 8 9 10 9 7 6 7 6
3 4 4 4 10 6 9 26 3 9 6 9 9 9 8 9 14 19 19 17 11 10 14 12 9 10 8 8 7 6 6 6 6 6 7 11 13 12 12 10 9 9 8 10 10 8 6 6 7
4 6 5 5 7 4 10 17 3 1 3 8 9 8 9 10 8 12 16 12 10 13 14 13 11 11 8 7 6 6 8 7 6 6 8 11 11 12 11 10 9 10 9 9 12 6 8 7 6
6 6 5 6 3 5 8 18 7 10 4 9 9 12 10 10 13 9 8 7 8 11 12 13 10 9 7 6 5 5 6 6 6 7 7 10 11 14 13 9 11 11 9 8 9 12 4 7 8
9 6 9 2 4 3 7 16 7 10 7 9 10 9 11 9 6 2 4 5 8 8 13 14 12 9 8 6 6 5 5 5 6 6 10 12 12 14 15 10 12 12 11 11 13 10 12 4 6
9 14 19 4 5 6 11 28 13 7 9 10 10 11 11 7 6 5 6 6 11 11 9 12 12 11 10 8 4 3 3 2 3 3 8 11 9 16 10 14 14 14 11 12 13 13 5 4 8
17 20 9 8 1 7 3 26 16 10 6 8 8 10 9 11 11 8 10 10 10 13 12 11 11 13 11 6 6 3 2 2 3 3 5 9 11 13 15 14 13 14 12 12 14 13 9 9 3
17 10 8 9 5 7 5 13 2 5 9 5 9 9 10 9 10 8 10 11 14 12 10 9 10 12 8 8 7 5 4 3 3 3 4 8 14 13 15 15 14 13 11 13 12 10 5 11 8
8 10 12 7 6 2 3 5 6 2 3 8 5 9 12 11 11 12 13 13 13 13 13 12 10 10 6 7 7 5 4 4 3 3 6 8 11 13 15 13 14 12 10 12 14 11 9 9 6
7 3 3 3 4 6 9 8 4 4 4 4 6 12 16 14 11 10 7 9 11 12 13 12 12 11 7 7 7 9 8 6 5 4 3 8 9 10 14 13 11 9 10 12 11 11 9 11 8
7 8 2 1 3 6 11 7 9 5 3 6 4 10 14 15 9 6 9 13 14 16 15 14 13 11 11 7 6 7 7 6 8 8 5 8 9 9 12 13 11 8 7 8 10 8 7 7 8
11 14 7 8 5 5 8 8 7 10 8 7 5 10 15 18 17 8 5 5 11 15 15 13 13 12 10 8 6 6 7 5 5 8 7 5 8 10 15 12 10 9 10 8 7 7 5 6 5
5 9 8 3 1 2 5 4 8 5 7 7 6 12 13 14 13 15 3 6 10 12 14 13 13 11 11 9 6 7 6 6 6 7 8 6 6 9 14 16 16 15 11 10 9 6 6 6 5
9 8 4 1 6 7 3 3 4 2 6 7 6 7 8 15 17 15 7 4 8 9 10 10 9 10 9 8 8 4 6 6 6 7 7 8 7 9 12 13 15 16 15 15 13 9 9 7 3
4 5 5 6 5 6 2 6 4 4 4 8 3 6 9 16 15 20 4 4 6 8 10 9 8 8 6 7 5 3 2 4 6 7 7 8 8 8 12 14 15 16 17 16 14 13 13 13 9
2 4 10 5 7 2 3 6 5 7 8 8 5 8 7 16 14 16 7 4 5 7 8 7 6 7 7 6 6 6 5 4 4 6 8 9 9 9 8 7 12 15 14 14 16 15 12 15 13
Wind_Direction
164 122 87 47 59 64 267 261 275 286 226 209 135 151 188 159 159 210 295 176 136 148 158 179 185 174 167 163 152 146 145 144 143 141 138 133 128 133 133 127 129 127 129 135 132 128 126 126 124
128 124 40 79 93 79 268 251 231 232 243 328 109 69 107 216 189 275 136 196 159 154 168 177 184 178 171 170 162 155 152 149 145 149 141 142 137 138 134 127 130 130 135 137 135 131 128 127 120
125 69 88 96 112 178 218 216 218 256 274 157 237 214 205 205 190 205 237 165 157 165 171 175 174 177 175 172 167 161 150 141 140 135 130 133 127 133 133 132 136 135 136 140 137 131 128 123 116
124 24 39 101 217 250 218 235 276 326 330 181 175 249 245 192 166 193 168 160 152 170 171 164 169 174 171 170 170 168 152 142 140 139 126 134 127 140 135 139 141 142 143 149 140 131 128 124 120
34 50 82 206 241 258 258 254 229 264 232 222 149 260 255 251 268 178 168 155 163 165 147 154 168 177 173 171 168 163 152 146 143 150 144 122 115 116 127 136 141 143 143 143 137 131 127 121 120
49 98 93 226 237 240 272 253 283 244 249 267 182 148 251 352 190 157 134 145 142 143 147 157 174 182 176 176 173 163 153 150 152 136 141 126 135 119 119 151 144 152 132 139 136 131 127 127 122
128 101 215 215 242 260 233 196 219 264 287 235 186 164 264 287 193 118 118 119 136 143 148 161 168 182 177 178 169 170 165 161 134 141 149 141 155 134 148 181 153 143 130 140 136 128 129 131 129
116 114 182 239 202 268 241 249 197 19 301 323 130 217 249 276 137 106 106 136 150 152 167 169 164 167 179 194 173 178 173 148 147 151 147 169 162 159 155 156 146 160 150 142 136 130 131 132 131
131 99 211 226 165 236 244 33 313 283 274 347 226 196 258 118 128 113 124 157 169 175 174 172 171 174 173 192 179 187 161 162 163 164 157 160 159 180 153 152 161 179 147 141 135 134 131 131 131
153 175 214 200 199 207 243 289 335 356 324 294 297 267 6 146 170 169 187 199 200 195 185 185 179 180 167 186 160 144 158 166 171 167 165 166 158 192 190 163 178 162 146 138 140 135 132 120 121
203 219 217 230 216 220 235 291 159 219 292 230 275 280 197 193 210 209 215 205 206 196 175 187 183 174 162 190 170 155 157 162 168 168 169 169 165 164 174 160 175 159 145 138 127 128 110 124 135
241 230 209 237 224 247 249 222 255 189 244 269 252 247 201 207 213 215 219 216 180 190 186 179 174 175 186 186 182 165 168 166 175 173 171 167 173 175 160 172 171 166 152 126 135 138 125 121 122
230 231 239 228 235 236 280 260 245 253 261 259 270 235 231 220 226 237 231 212 193 196 185 179 167 180 179 181 156 166 160 165 181 168 172 170 177 179 169 164 164 155 150 134 144 135 139 125 123
255 233 249 247 248 242 253 267 250 255 227 251 258 254 232 215 225 236 232 221 196 199 192 171 172 173 175 173 158 165 160 160 165 164 170 170 179 175 179 171 164 152 152 150 150 146 143 134 133
256 273 262 230 222 236 207 257 238 253 234 242 255 276 254 226 233 229 229 226 205 200 171 174 165 161 179 171 165 157 164 163 171 165 174 171 174 181 179 173 172 170 151 137 131 111 121 126 131
267 254 235 227 193 231 152 260 250 246 204 247 276 271 270 257 233 235 234 231 199 163 168 160 163 166 165 163 162 160 171 179 180 176 182 187 181 178 177 175 174 167 150 147 146 139 126 138 140
233 251 241 296 195 178 189 270 222 173 227 276 280 286 288 291 270 247 237 227 182 170 157 162 161 167 160 156 160 170 176 183 187 177 185 191 203 189 183 178 160 156 152 158 151 137 140 138 124
207 249 240 210 233 225 256 268 285 281 258 264 279 290 286 290 290 266 228 175 157 160 156 157 162 153 147 154 161 172 178 183 184 193 194 195 199 195 196 171 156 157 157 151 150 137 112 142 142
246 259 256 328 239 269 259 268 254 269 287 272 271 271 281 274 286 309 166 148 137 158 156 158 159 156 157 166 161 182 181 178 186 201 206 185 194 193 183 161 155 156 160 159 157 136 134 107 134
220 241 252 267 261 282 283 278 281 243 251 246 250 263 258 267 276 238 185 167 171 180 168 156 164 166 175 185 146 149 160 175 176 201 188 181 188 188 157 159 163 159 157 156 153 146 127 113 161
228 230 225 242 284 272 312 281 283 250 233 259 269 247 251 244 252 226 200 191 178 180 178 164 166 177 180 162 139 140 137 113 163 195 184 176 164 163 155 160 158 161 157 157 160 155 149 154 185
244 169 177 216 161 247 152 285 158 246 263 243 261 263 267 250 249 238 196 191 193 190 157 151 164 184 179 165 153 164 168 174 173 175 181 180 166 166 155 155 155 154 152 158 159 152 141 150 160
246 167 195 181 194 241 219 301 267 94 332 257 300 327 309 263 242 239 209 201 183 172 165 162 168 182 170 179 156 164 198 205 164 151 174 165 162 159 152 149 153 152 155 159 161 159 154 161 144
164 104 101 104 130 252 183 183 245 187 204 47 5 353 337 307 243 238 177 153 171 170 167 165 169 178 166 181 146 188 202 182 160 154 155 159 150 149 147 144 147 145 149 151 161 166 163 163 166
150 121 199 231 202 221 189 186 255 268 271 94 38 7 355 357 331 264 177 179 171 177 170 171 173 171 183 180 161 180 186 179 160 157 156 152 154 149 147 146 144 123 121 136 141 147 151 155 164
177 183 176 209 194 197 164 221 247 220 138 123 107 65 27 13 355 297 240 194 183 187 172 172 172 170 177 174 181 172 172 170 159 164 153 155 160 155 150 146 151 132 122 109 115 126 113 122 122
200 192 183 73 305 67 212 284 315 183 151 117 69 67 37 15 3 336 260 174 185 184 172 176 180 181 181 174 181 168 158 154 153 148 159 156 149 143 152 160 166 171 166 145 146 134 130 142 135
175 156 131 234 212 237 251 232 215 176 179 109 24 66 42 30 4 345 281 164 170 161 161 163 168 184 185 184 204 169 157 148 137 133 151 147 144 150 155 158 165 169 176 174 175 170 171 148 147
177 180 195 161 166 188 235 248 230 237 76 106 8 36 27 41 16 357 49 123 128 134 148 149 154 168 166 168 168 170 152 147 145 140 135 144 139 149 173 172 171 172 175 182 184 181 178 184 187
88 180 191 171 207 241 163 247 334 126 111 117 56 55 30 55 28 14 18 73 124 127 129 152 138 154 162 163 162 165 159 148 156 154 146 148 156 155 157 160 171 167 177 178 181 177 179 189 193